| time (UTC) | temp F | wind direction | speed MPH | gust MPH | rain 1hr in | rain 24hr in | rain mn in | humidity % | barometer mb |
| 20260903000015 | 58 | 247 | 2.0 | 4.0 | 0.00 | 0.00 | 0.00 | 84 | 1027.1 |
| 20260902234514 | 58 | 208 | 2.0 | 4.0 | 0.00 | 0.00 | 0.00 | 85 | 1027.1 |
| 20260902233014 | 57 | 190 | 2.0 | 3.0 | 0.00 | 0.00 | 0.00 | 86 | 1027.2 |
| 20260902230015 | 58 | 283 | 1.0 | 3.0 | 0.00 | 0.00 | 0.00 | 82 | 1027.2 |
| 20260902224514 | 58 | 281 | 1.0 | 4.0 | 0.00 | 0.00 | 0.00 | 82 | 1027.4 |
| 20260902214514 | 58 | 235 | 3.0 | 4.0 | 0.00 | 0.00 | 0.00 | 80 | 1027.0 |
| 20260902211514 | 58 | 234 | 2.0 | 4.0 | 0.00 | 0.00 | 0.00 | 78 | 1026.7 |
| 20260902201513 | 57 | 220 | 5.0 | 6.0 | 0.00 | 0.00 | 0.00 | 93 | 1026.6 |
| 20260902194520 | 57 | 209 | 8.0 | 9.0 | 0.00 | 0.00 | 0.00 | 92 | 1026.7 |
| 20260902193019 | 57 | 204 | 6.0 | 9.0 | 0.00 | 0.00 | 0.00 | 93 | 1026.6 |
| 20260902191519 | 57 | 199 | 6.0 | 8.0 | 0.00 | 0.00 | 0.00 | 93 | 1026.6 |
| 20260902190019 | 57 | 203 | 7.0 | 10.0 | 0.00 | 0.00 | 0.00 | 93 | 1026.5 |
| 20260902184519 | 57 | 209 | 6.0 | 8.0 | 0.00 | 0.00 | 0.00 | 92 | 1026.3 |
| 20260902183018 | 57 | 217 | 7.0 | 9.0 | 0.00 | 0.00 | 0.00 | 91 | 1025.9 |
| 20260902181518 | 57 | 225 | 8.0 | 11.0 | 0.00 | 0.00 | 0.00 | 90 | 1025.9 |
| 20260902174518 | 57 | 198 | 6.0 | 7.0 | 0.00 | 0.00 | 0.00 | 90 | 1025.7 |
| 20260902173017 | 58 | 193 | 6.0 | 8.0 | 0.00 | 0.00 | 0.00 | 90 | 1025.7 |
| 20260902170018 | 59 | 186 | 6.0 | 8.0 | 0.00 | 0.00 | 0.00 | 89 | 1025.7 |
| 20260902164517 | 59 | 190 | 9.0 | 14.0 | 0.00 | 0.00 | 0.00 | 89 | 1025.8 |
| 20260902163018 | 59 | 189 | 9.0 | 13.0 | 0.00 | 0.00 | 0.00 | 87 | 1025.9 |
| 20260902161518 | 59 | 188 | 9.0 | 15.0 | 0.00 | 0.00 | 0.00 | 89 | 1025.7 |
| 20260902160017 | 60 | 192 | 9.0 | 13.0 | 0.00 | 0.00 | 0.00 | 87 | 1025.8 |
| 20260902154517 | 60 | 174 | 10.0 | 16.0 | 0.00 | 0.00 | 0.00 | 86 | 1025.7 |
| 20260902153017 | 60 | 193 | 10.0 | 14.0 | 0.00 | 0.00 | 0.00 | 86 | 1025.8 |
| 20260902151518 | 61 | 192 | 9.0 | 15.0 | 0.00 | 0.00 | 0.00 | 82 | 1025.8 |
| 20260902150017 | 61 | 185 | 10.0 | 20.0 | 0.00 | 0.00 | 0.00 | 84 | 1026.1 |
| 20260902144516 | 60 | 168 | 9.0 | 15.0 | 0.00 | 0.00 | 0.00 | 82 | 1025.9 |
| 20260902143016 | 59 | 185 | 8.0 | 13.0 | 0.00 | 0.00 | 0.00 | 87 | 1026.0 |
| 20260902141517 | 59 | 174 | 12.0 | 19.0 | 0.00 | 0.00 | 0.00 | 89 | 1026.3 |
| 20260902140016 | 59 | 162 | 12.0 | 16.0 | 0.00 | 0.00 | 0.00 | 88 | 1026.4 |
| 20260902134516 | 60 | 177 | 11.0 | 20.0 | 0.00 | 0.00 | 0.00 | 86 | 1026.5 |
| 20260902133015 | 60 | 176 | 9.0 | 15.0 | 0.00 | 0.00 | 0.00 | 87 | 1026.8 |
| 20260902131515 | 58 | 141 | 9.0 | 13.0 | 0.00 | 0.00 | 0.00 | 88 | 1026.7 |
| 20260902130016 | 58 | 154 | 12.0 | 17.0 | 0.00 | 0.00 | 0.00 | 88 | 1026.6 |
| 20260902123016 | 59 | 182 | 9.0 | 18.0 | 0.00 | 0.00 | 0.00 | 88 | 1026.6 |
| 20260902121515 | 59 | 166 | 7.0 | 14.0 | 0.00 | 0.00 | 0.00 | 85 | 1026.7 |
| 20260902120016 | 59 | 154 | 10.0 | 20.0 | 0.00 | 0.00 | 0.00 | 87 | 1026.9 |
| 20260902113014 | 59 | 174 | 7.0 | 12.0 | 0.00 | 0.00 | 0.00 | 87 | 1026.8 |
| 20260902104514 | 58 | 150 | 9.0 | 16.0 | 0.00 | 0.00 | 0.00 | 89 | 1027.1 |
| 20260902103014 | 58 | 147 | 8.0 | 14.0 | 0.00 | 0.00 | 0.00 | 90 | 1027.3 |
| 20260902101515 | 58 | 160 | 7.0 | 14.0 | 0.00 | 0.00 | 0.00 | 91 | 1027.4 |
| 20260902100014 | 57 | 166 | 10.0 | 17.0 | 0.00 | 0.00 | 0.00 | 91 | 1027.4 |
| 20260902094515 | 58 | 163 | 5.0 | 9.0 | 0.00 | 0.00 | 0.00 | 91 | 1027.4 |
| 20260902093015 | 57 | 167 | 8.0 | 13.0 | 0.00 | 0.00 | 0.00 | 91 | 1027.3 |
| 20260902091513 | 57 | 185 | 6.0 | 11.0 | 0.00 | 0.00 | 0.00 | 91 | 1027.2 |
| 20260902090016 | 58 | 164 | 3.0 | 9.0 | 0.00 | 0.00 | 0.00 | 93 | 1027.3 |
| 20260902083013 | 57 | 73 | 2.0 | 7.0 | 0.00 | 0.00 | 0.00 | 93 | 1027.1 |
| 20260902081514 | 57 | 40 | 2.0 | 7.0 | 0.00 | 0.00 | 0.00 | 92 | 1027.0 |
| 20260902080019 | 57 | 168 | 1.0 | 3.0 | 0.00 | 0.00 | 0.00 | 92 | 1026.9 |
| 20260902074518 | 57 | 158 | 1.0 | 3.0 | 0.00 | 0.00 | 0.00 | 94 | 1026.9 |
| 20260902073019 | 55 | 228 | 1.0 | 2.0 | 0.00 | 0.00 | 0.00 | 96 | 1026.7 |
| 20260902070018 | 54 | 229 | 3.0 | 4.0 | 0.00 | 0.00 | 0.00 | 96 | 1026.6 |
| 20260902064519 | 54 | 227 | 2.0 | 3.0 | 0.00 | 0.00 | 0.00 | 96 | 1026.6 |
| 20260902063018 | 54 | 225 | 2.0 | 3.0 | 0.00 | 0.00 | 0.00 | 96 | 1026.5 |
| 20260902060019 | 54 | 243 | 4.0 | 5.0 | 0.00 | 0.00 | 0.00 | 95 | 1026.6 |
| 20260902054518 | 55 | 245 | 3.0 | 5.0 | 0.00 | 0.00 | 0.00 | 91 | 1026.3 |
| 20260902053018 | 55 | 268 | 2.0 | 3.0 | 0.00 | 0.00 | 0.00 | 90 | 1026.1 |
| 20260902050017 | 54 | 1 | 2.0 | 3.0 | 0.00 | 0.00 | 0.00 | 91 | 1026.1 |
| 20260902043017 | 54 | 1 | 1.0 | 3.0 | 0.00 | 0.00 | 0.00 | 92 | 1026.0 |
| 20260902041518 | 54 | 1 | 5.0 | 6.0 | 0.00 | 0.00 | 0.00 | 92 | 1025.9 |
| 20260902040017 | 54 | 339 | 3.0 | 6.0 | 0.00 | 0.00 | 0.00 | 93 | 1025.9 |
| 20260902034517 | 54 | 251 | 1.0 | 3.0 | 0.00 | 0.00 | 0.00 | 95 | 1026.2 |
| 20260902033016 | 54 | 250 | 2.0 | 3.0 | 0.00 | 0.00 | 0.00 | 96 | 1026.3 |
| 20260902031516 | 54 | 250 | 2.0 | 3.0 | 0.00 | 0.00 | 0.00 | 97 | 1026.3 |
| 20260902030016 | 55 | 249 | 3.0 | 4.0 | 0.00 | 0.00 | 0.00 | 97 | 1026.3 |
| 20260902024516 | 55 | 223 | 2.0 | 4.0 | 0.00 | 0.00 | 0.00 | 97 | 1026.3 |
| 20260902023016 | 55 | 214 | 3.0 | 4.0 | 0.00 | 0.00 | 0.00 | 97 | 1026.4 |
| 20260902021516 | 55 | 205 | 3.0 | 5.0 | 0.00 | 0.00 | 0.00 | 97 | 1026.4 |
| 20260902020016 | 55 | 0 | 0.0 | 0.0 | 0.00 | 0.00 | 0.00 | 97 | 1026.3 |
| 20260902014515 | 55 | 194 | 1.0 | 3.0 | 0.00 | 0.00 | 0.00 | 97 | 1026.3 |
| 20260902013015 | 55 | 196 | 1.0 | 4.0 | 0.00 | 0.00 | 0.00 | 98 | 1026.3 |
| 20260902010015 | 55 | 154 | 2.0 | 3.0 | 0.00 | 0.00 | 0.00 | 97 | 1026.4 |
| 20260902004514 | 55 | 168 | 2.0 | 5.0 | 0.00 | 0.00 | 0.00 | 97 | 1026.3 |
| 20260902003015 | 55 | 171 | 1.0 | 4.0 | 0.00 | 0.00 | 0.00 | 96 | 1026.4 |
| 20260902001515 | 55 | 209 | 4.0 | 5.0 | 0.00 | 0.00 | 0.00 | 96 | 1026.4 |